Tracking 34352 objects as of 8-Jun-2026
HD Live streaming from Space Station
objects crossing your sky now

STARLINK-32948

Track STARLINK-32948 now!
10-day predictions
STARLINK-32948 is classified as:


NORAD ID: 63123
Int'l Code: 2025-039V
Perigee: 489.5 km
Apogee: 490.9 km
Inclination: 43.0 °
Period: 94.3 minutes
Semi major axis: 6861 km
RCS: Unknown
Launch date: February 27, 2025
Source: United States (US)
Launch site: AIR FORCE EASTERN TEST RANGE (AFETR)
Your satellite tracking list
Your tracking list is empty




NASA's NSSDC Master Catalog

Two Line Element Set (TLE):
1 63123U 25039V   26156.93874178  .00022363  00000-0  81956-3 0  9999
2 63123  42.9990 234.3674 0001031 248.1524 111.9218 15.27586402 71562
Source of the keplerian elements: AFSPC